RA44704 UAON-UGTB

Flight info

Callsign RA44704
Flight time 2h 16m
Altitude 36000
Route NATUS M610 DIVNO N161 MASAV N37 IPLED A921 KUFAN DCT LAMUS
Aircraft B752/M-SDFGHIRWY/S

Departure

Time 2026-05-06 17:16
Airport Yubileyniy Airfield (UAON)

Arrival

Time 2026-05-06 19:32
Airport Tbilisi International Airport (UGTB)
Time Latitude Longitude Altitude Speed Heading
2026-05-06 17:00 46.06049 63.25546 324 ft 0 kts 158°
2026-05-06 17:08 46.06039 63.25552 324 ft 3 kts 157°
2026-05-06 17:08 46.06008 63.25559 324 ft 4 kts 195°
2026-05-06 17:08 46.05976 63.25528 324 ft 6 kts 216°
2026-05-06 17:08 46.05936 63.25516 324 ft 6 kts 167°
2026-05-06 17:09 46.05893 63.25532 324 ft 5 kts 185°
2026-05-06 17:09 46.05863 63.25495 324 ft 6 kts 242°
2026-05-06 17:09 46.05843 63.25433 324 ft 7 kts 244°
2026-05-06 17:09 46.05823 63.25367 324 ft 7 kts 246°
2026-05-06 17:10 46.05803 63.25298 324 ft 7 kts 246°
2026-05-06 17:10 46.05782 63.25228 324 ft 7 kts 246°
2026-05-06 17:10 46.05761 63.25158 324 ft 7 kts 246°
2026-05-06 17:10 46.05738 63.25083 324 ft 10 kts 246°
2026-05-06 17:11 46.05700 63.24955 324 ft 17 kts 246°
2026-05-06 17:11 46.05650 63.24787 324 ft 18 kts 246°
2026-05-06 17:11 46.05598 63.24619 324 ft 18 kts 246°
2026-05-06 17:11 46.05548 63.24451 324 ft 18 kts 246°
2026-05-06 17:12 46.05498 63.24285 324 ft 17 kts 246°
2026-05-06 17:12 46.05449 63.24123 324 ft 17 kts 245°
2026-05-06 17:12 46.05400 63.23963 324 ft 17 kts 246°
2026-05-06 17:12 46.05351 63.23804 324 ft 17 kts 246°
2026-05-06 17:13 46.05304 63.23645 324 ft 17 kts 246°
2026-05-06 17:13 46.05260 63.23499 324 ft 13 kts 246°
2026-05-06 17:13 46.05226 63.23392 324 ft 6 kts 246°
2026-05-06 17:13 46.05200 63.23362 324 ft 5 kts 171°
2026-05-06 17:14 46.05160 63.23382 324 ft 6 kts 157°
2026-05-06 17:14 46.05118 63.23407 324 ft 6 kts 156°
2026-05-06 17:14 46.05067 63.23439 324 ft 10 kts 156°
2026-05-06 17:14 46.04988 63.23490 324 ft 12 kts 156°
2026-05-06 17:15 46.04908 63.23539 324 ft 12 kts 156°
2026-05-06 17:15 46.04856 63.23607 324 ft 9 kts 92°
2026-05-06 17:15 46.04876 63.23693 324 ft 8 kts 66°
2026-05-06 17:15 46.04967 63.23984 324 ft 71 kts 66°
2026-05-06 17:16 46.05280 63.25029 350 ft 151 kts 64°
2026-05-06 17:16 46.05724 63.26579 1006 ft 184 kts 67°
2026-05-06 17:16 46.06550 63.28063 1830 ft 215 kts 35°
2026-05-06 17:16 46.08048 63.28814 2708 ft 249 kts
2026-05-06 17:17 46.09771 63.28273 3669 ft 266 kts 332°
2026-05-06 17:17 46.11163 63.26487 4620 ft 279 kts 302°
2026-05-06 17:17 46.11821 63.23889 5579 ft 285 kts 272°
2026-05-06 17:17 46.11601 63.21124 6545 ft 287 kts 251°
2026-05-06 17:18 46.10931 63.18469 7747 ft 278 kts 246°
2026-05-06 17:18 46.10221 63.15957 8785 ft 274 kts 246°
2026-05-06 17:18 46.09510 63.13370 9611 ft 277 kts 247°
2026-05-06 17:18 46.08807 63.10801 10381 ft 281 kts 247°
2026-05-06 17:19 46.08066 63.08091 10726 ft 301 kts 248°
2026-05-06 17:19 46.07479 63.05936 10985 ft 315 kts 248°
2026-05-06 17:19 46.06650 63.02896 11387 ft 331 kts 248°
2026-05-06 17:19 46.05819 62.99844 12168 ft 332 kts 248°
2026-05-06 17:20 46.04979 62.96765 12881 ft 336 kts 248°
2026-05-06 17:20 46.04124 62.93632 13659 ft 337 kts 248°
2026-05-06 17:20 46.03268 62.90501 14369 ft 341 kts 248°
2026-05-06 17:20 46.02398 62.87324 15131 ft 343 kts 248°
2026-05-06 17:21 46.01521 62.84126 15832 ft 346 kts 248°
2026-05-06 17:21 46.00636 62.80904 16488 ft 351 kts 248°
2026-05-06 17:21 45.99735 62.77626 17233 ft 353 kts 248°
2026-05-06 17:21 45.98839 62.74369 17936 ft 357 kts 248°
2026-05-06 17:22 45.97918 62.71030 18620 ft 361 kts 247°
2026-05-06 17:22 45.96993 62.67680 19303 ft 365 kts 247°
2026-05-06 17:22 45.96068 62.64332 20016 ft 367 kts 247°
2026-05-06 17:22 45.95121 62.60909 20908 ft 364 kts 247°
2026-05-06 17:23 45.94191 62.57554 21554 ft 367 kts 247°
2026-05-06 17:23 45.93231 62.54100 22171 ft 371 kts 247°
2026-05-06 17:23 45.92277 62.50665 22787 ft 374 kts 247°
2026-05-06 17:23 45.91319 62.47225 23402 ft 376 kts 247°
2026-05-06 17:24 45.90342 62.43721 23974 ft 381 kts 247°
2026-05-06 17:24 45.89361 62.40208 24681 ft 382 kts 247°
2026-05-06 17:24 45.88364 62.36641 25268 ft 385 kts 247°
2026-05-06 17:24 45.87368 62.33086 25852 ft 388 kts 246°
2026-05-06 17:25 45.86364 62.29505 26442 ft 391 kts 246°
2026-05-06 17:25 45.85342 62.25867 27023 ft 393 kts 246°
2026-05-06 17:25 45.84309 62.22195 27575 ft 396 kts 246°
2026-05-06 17:25 45.83282 62.18550 28138 ft 398 kts 246°
2026-05-06 17:26 45.82241 62.14861 28649 ft 400 kts 246°
2026-05-06 17:26 45.81191 62.11141 29114 ft 404 kts 246°
2026-05-06 17:26 45.80139 62.07426 29634 ft 406 kts 246°
2026-05-06 17:26 45.79075 62.03670 30087 ft 409 kts 246°
2026-05-06 17:27 45.78012 61.99926 30522 ft 411 kts 246°
2026-05-06 17:27 45.76922 61.96093 30915 ft 415 kts 246°
2026-05-06 17:27 45.75850 61.92326 31367 ft 416 kts 246°
2026-05-06 17:27 45.74760 61.88505 31835 ft 416 kts 246°
2026-05-06 17:28 45.73671 61.84689 32407 ft 413 kts 246°
2026-05-06 17:28 45.72587 61.80901 32878 ft 412 kts 246°
2026-05-06 17:28 45.71508 61.77133 33436 ft 409 kts 246°
2026-05-06 17:28 45.70434 61.73388 33871 ft 408 kts 246°
2026-05-06 17:29 45.69362 61.69656 34300 ft 406 kts 246°
2026-05-06 17:29 45.68293 61.65945 34660 ft 405 kts 246°
2026-05-06 17:29 45.67220 61.62223 34917 ft 406 kts 246°
2026-05-06 17:29 45.66138 61.58476 35213 ft 406 kts 246°
2026-05-06 17:30 45.65058 61.54742 35510 ft 406 kts 246°
2026-05-06 17:30 45.63996 61.51071 35782 ft 406 kts 246°
2026-05-06 17:30 45.62915 61.47345 35916 ft 403 kts 246°
2026-05-06 17:31 45.60767 61.39949 35924 ft 403 kts 246°
2026-05-06 17:31 45.58625 61.32605 35928 ft 403 kts 245°
2026-05-06 17:32 45.56472 61.25239 35925 ft 401 kts 245°
2026-05-06 17:32 45.54321 61.17904 35920 ft 402 kts 245°
2026-05-06 17:33 45.52173 61.10600 35917 ft 401 kts 245°
2026-05-06 17:33 45.50016 61.03286 35918 ft 401 kts 246°
2026-05-06 17:34 45.47860 60.95997 35914 ft 400 kts 245°
2026-05-06 17:34 45.45712 60.88757 35916 ft 400 kts 245°
2026-05-06 17:35 45.43568 60.81443 35912 ft 400 kts 249°
2026-05-06 17:35 45.42705 60.73667 35920 ft 407 kts 269°
2026-05-06 17:36 45.43966 60.61604 35913 ft 411 kts 275°
2026-05-06 17:36 45.44880 60.53604 35910 ft 412 kts 275°
2026-05-06 17:37 45.45790 60.45599 35906 ft 412 kts 275°
2026-05-06 17:37 45.46698 60.37561 35901 ft 411 kts 275°
2026-05-06 17:38 45.47599 60.29525 35911 ft 413 kts 274°
2026-05-06 17:38 45.48496 60.21473 35908 ft 412 kts 274°
2026-05-06 17:39 45.49386 60.13429 35910 ft 412 kts 274°
2026-05-06 17:39 45.50271 60.05383 35904 ft 412 kts 274°
2026-05-06 17:40 45.51143 59.97399 35905 ft 410 kts 274°
2026-05-06 17:40 45.52010 59.89397 35904 ft 412 kts 274°
2026-05-06 17:41 45.52879 59.81336 35895 ft 411 kts 274°
2026-05-06 17:41 45.53738 59.73305 35894 ft 412 kts 275°
2026-05-06 17:42 45.54594 59.65254 35898 ft 412 kts 274°
2026-05-06 17:42 45.55447 59.57173 35895 ft 412 kts 274°
2026-05-06 17:43 45.56290 59.49128 35896 ft 413 kts 274°
2026-05-06 17:43 45.57128 59.41078 35893 ft 413 kts 274°
2026-05-06 17:44 45.57966 59.32964 35898 ft 414 kts 274°
2026-05-06 17:44 45.58795 59.24891 35899 ft 413 kts 274°
2026-05-06 17:45 45.59618 59.16810 35901 ft 413 kts 274°
2026-05-06 17:45 45.60437 59.08715 35902 ft 413 kts 274°
2026-05-06 17:46 45.61248 59.00637 35906 ft 413 kts 274°
2026-05-06 17:46 45.62054 58.92548 35893 ft 413 kts 274°
2026-05-06 17:47 45.62857 58.84421 35900 ft 413 kts 274°
2026-05-06 17:47 45.63653 58.76318 35898 ft 414 kts 274°
2026-05-06 17:48 45.64444 58.68197 35899 ft 415 kts 274°
2026-05-06 17:48 45.65231 58.60062 35894 ft 415 kts 274°
2026-05-06 17:49 45.66008 58.51972 35898 ft 414 kts 274°
2026-05-06 17:49 45.66784 58.43825 35898 ft 415 kts 274°
2026-05-06 17:50 45.67557 58.35650 35900 ft 414 kts 274°
2026-05-06 17:50 45.68320 58.27513 35905 ft 414 kts 272°
2026-05-06 17:51 45.69075 58.19393 35912 ft 414 kts 272°
2026-05-06 17:51 45.69824 58.11280 35900 ft 415 kts 272°
2026-05-06 17:52 45.70573 58.03096 35911 ft 414 kts 272°
2026-05-06 17:52 45.71308 57.95010 35911 ft 414 kts 272°
2026-05-06 17:53 45.72045 57.86822 35904 ft 417 kts 272°
2026-05-06 17:53 45.72780 57.78610 35912 ft 416 kts 272°
2026-05-06 17:54 45.73400 57.70470 35906 ft 413 kts 266°
2026-05-06 17:54 45.72488 57.62497 35913 ft 405 kts 250°
2026-05-06 17:55 45.70760 57.54879 35902 ft 403 kts 249°
2026-05-06 17:55 45.68946 57.47345 35894 ft 403 kts 248°
2026-05-06 17:56 45.67080 57.39806 35897 ft 404 kts 248°
2026-05-06 17:56 45.65183 57.32244 35895 ft 403 kts 247°
2026-05-06 17:57 45.63289 57.24744 35902 ft 403 kts 247°
2026-05-06 17:57 45.61383 57.17234 35888 ft 404 kts 247°
2026-05-06 17:58 45.59478 57.09756 35897 ft 404 kts 247°
2026-05-06 17:58 45.57550 57.02211 35881 ft 404 kts 247°
2026-05-06 17:59 45.55633 56.94740 35888 ft 405 kts 247°
2026-05-06 17:59 45.53692 56.87192 35885 ft 404 kts 247°
2026-05-06 18:00 45.51807 56.79892 35882 ft 402 kts 247°
2026-05-06 18:00 45.49885 56.72469 35886 ft 402 kts 247°
2026-05-06 18:01 45.47948 56.65017 35884 ft 403 kts 247°
2026-05-06 18:01 45.46011 56.57584 35878 ft 403 kts 247°
2026-05-06 18:02 45.44057 56.50108 35881 ft 403 kts 247°
2026-05-06 18:02 45.42102 56.42655 35875 ft 404 kts 247°
2026-05-06 18:03 45.40138 56.35189 35885 ft 402 kts 246°
2026-05-06 18:03 45.38189 56.27803 35892 ft 402 kts 246°
2026-05-06 18:04 45.36225 56.20388 35891 ft 402 kts 246°
2026-05-06 18:04 45.34246 56.12939 35887 ft 403 kts 246°
2026-05-06 18:05 45.32269 56.05518 35887 ft 402 kts 246°
2026-05-06 18:05 45.30304 55.98163 35886 ft 401 kts 246°
2026-05-06 18:06 45.28319 55.90763 35886 ft 402 kts 246°
2026-05-06 18:06 45.26325 55.83348 35886 ft 403 kts 246°
2026-05-06 18:07 45.24330 55.75954 35889 ft 405 kts 246°
2026-05-06 18:07 45.22319 55.68521 35886 ft 404 kts 246°
2026-05-06 18:08 45.20310 55.61120 35887 ft 404 kts 246°
2026-05-06 18:08 45.18292 55.53710 35889 ft 402 kts 246°
2026-05-06 18:09 45.16276 55.46326 35893 ft 404 kts 245°
2026-05-06 18:09 45.14245 55.38914 35894 ft 405 kts 245°
2026-05-06 18:10 45.12215 55.31527 35894 ft 404 kts 245°
2026-05-06 18:10 45.10163 55.24082 35898 ft 406 kts 245°
2026-05-06 18:11 45.08122 55.16702 35898 ft 406 kts 245°
2026-05-06 18:11 45.06063 55.09279 35897 ft 406 kts 245°
2026-05-06 18:12 45.03996 55.01848 35883 ft 406 kts 245°
2026-05-06 18:12 45.01934 54.94459 35885 ft 405 kts 245°
2026-05-06 18:13 44.99927 54.87289 35886 ft 406 kts 245°
2026-05-06 18:13 44.97860 54.79921 35890 ft 405 kts 245°
2026-05-06 18:14 44.95772 54.72511 35898 ft 407 kts 245°
2026-05-06 18:14 44.93693 54.65150 35897 ft 404 kts 245°
2026-05-06 18:15 44.91606 54.57781 35913 ft 407 kts 245°
2026-05-06 18:15 44.89500 54.50367 35915 ft 407 kts 245°
2026-05-06 18:16 44.87396 54.42983 35929 ft 407 kts 245°
2026-05-06 18:16 44.85286 54.35603 35930 ft 408 kts 245°
2026-05-06 18:17 44.83162 54.28198 35933 ft 406 kts 244°
2026-05-06 18:17 44.81043 54.20830 35944 ft 407 kts 244°
2026-05-06 18:18 44.78912 54.13445 35938 ft 408 kts 245°
2026-05-06 18:18 44.76778 54.06067 35947 ft 407 kts 244°
2026-05-06 18:19 44.74645 53.98719 35935 ft 407 kts 244°
2026-05-06 18:19 44.72510 53.91385 35947 ft 407 kts 244°
2026-05-06 18:20 44.70364 53.84033 35941 ft 407 kts 244°
2026-05-06 18:20 44.68213 53.76688 35948 ft 407 kts 244°
2026-05-06 18:21 44.66055 53.69342 35938 ft 408 kts 244°
2026-05-06 18:21 44.63901 53.62024 35946 ft 406 kts 244°
2026-05-06 18:22 44.61734 53.54688 35938 ft 407 kts 245°
2026-05-06 18:22 44.59573 53.47393 35935 ft 407 kts 244°
2026-05-06 18:23 44.57399 53.40077 35943 ft 407 kts 245°
2026-05-06 18:23 44.55229 53.32794 35950 ft 407 kts 244°
2026-05-06 18:24 44.53043 53.25479 35938 ft 407 kts 244°
2026-05-06 18:24 44.50858 53.18188 35942 ft 407 kts 244°
2026-05-06 18:25 44.48662 53.10881 35934 ft 408 kts 244°
2026-05-06 18:25 44.46455 53.03558 36184 ft 410 kts 244°
2026-05-06 18:26 44.45345 52.99884 36516 ft 410 kts 244°
2026-05-06 18:26 44.44241 52.96235 36860 ft 408 kts 244°
2026-05-06 18:26 44.43133 52.92579 37103 ft 409 kts 244°
2026-05-06 18:26 44.42035 52.88960 37414 ft 408 kts 245°
2026-05-06 18:27 44.40925 52.85305 37648 ft 409 kts 245°
2026-05-06 18:27 44.39820 52.81670 37931 ft 406 kts 244°
2026-05-06 18:27 44.37624 52.74455 37953 ft 405 kts 245°
2026-05-06 18:28 44.35408 52.67200 37953 ft 407 kts 245°
2026-05-06 18:28 44.33201 52.59993 37954 ft 406 kts 245°
2026-05-06 18:29 44.30975 52.52745 37954 ft 406 kts 245°
2026-05-06 18:29 44.28756 52.45539 37956 ft 406 kts 245°
2026-05-06 18:30 44.26527 52.38324 37962 ft 406 kts 245°
2026-05-06 18:30 44.24290 52.31101 37968 ft 406 kts 244°
2026-05-06 18:31 44.22058 52.23912 37969 ft 405 kts 244°
2026-05-06 18:31 44.19901 52.16652 37965 ft 405 kts 245°
2026-05-06 18:32 44.17799 52.09414 37968 ft 407 kts 245°
2026-05-06 18:32 44.15669 52.02104 37961 ft 407 kts 245°
2026-05-06 18:33 44.13549 51.94851 37964 ft 407 kts 245°
2026-05-06 18:33 44.11406 51.87541 37962 ft 408 kts 245°
2026-05-06 18:34 44.09267 51.80265 37968 ft 407 kts 245°
2026-05-06 18:34 44.07124 51.72995 37964 ft 406 kts 245°
2026-05-06 18:35 44.04984 51.65759 37967 ft 408 kts 245°
2026-05-06 18:35 44.02821 51.58466 37963 ft 407 kts 245°
2026-05-06 18:36 44.00671 51.51236 37971 ft 408 kts 245°
2026-05-06 18:36 43.98497 51.43947 37970 ft 409 kts 245°
2026-05-06 18:37 43.96324 51.36683 37969 ft 408 kts 245°
2026-05-06 18:37 43.94142 51.29408 37982 ft 410 kts 245°
2026-05-06 18:38 43.91942 51.22094 37983 ft 410 kts 245°
2026-05-06 18:38 43.89767 51.14881 37988 ft 408 kts 245°
2026-05-06 18:39 43.87579 51.07652 37993 ft 409 kts 245°
2026-05-06 18:40 43.84338 50.96710 37991 ft 408 kts 245°
2026-05-06 18:40 43.82204 50.89508 37992 ft 408 kts 245°
2026-05-06 18:41 43.80036 50.82213 37993 ft 412 kts 246°
2026-05-06 18:41 43.77861 50.74914 37984 ft 410 kts 246°
2026-05-06 18:42 43.75669 50.67582 37998 ft 413 kts 246°
2026-05-06 18:42 43.73483 50.60289 37990 ft 411 kts 246°
2026-05-06 18:43 43.71300 50.53027 37985 ft 411 kts 246°
2026-05-06 18:43 43.69104 50.45742 37988 ft 411 kts 246°
2026-05-06 18:44 43.66905 50.38471 37993 ft 410 kts 246°
2026-05-06 18:44 43.64697 50.31187 38000 ft 412 kts 245°
2026-05-06 18:45 43.62486 50.23916 37987 ft 412 kts 245°
2026-05-06 18:45 43.60274 50.16658 37988 ft 412 kts 245°
2026-05-06 18:46 43.58039 50.09350 37989 ft 412 kts 245°
2026-05-06 18:46 43.55816 50.02100 37999 ft 413 kts 245°
2026-05-06 18:47 43.53582 49.94833 37995 ft 410 kts 245°
2026-05-06 18:47 43.51355 49.87613 38007 ft 411 kts 245°
2026-05-06 18:48 43.49130 49.80413 38012 ft 410 kts 245°
2026-05-06 18:48 43.46883 49.73168 38007 ft 411 kts 246°
2026-05-06 18:49 43.44642 49.65962 38004 ft 412 kts 245°
2026-05-06 18:49 43.42387 49.58728 37997 ft 411 kts 245°
2026-05-06 18:50 43.40131 49.51530 38000 ft 411 kts 244°
2026-05-06 18:50 43.37368 49.44698 37999 ft 410 kts 239°
2026-05-06 18:51 43.34510 49.37920 38003 ft 410 kts 239°
2026-05-06 18:51 43.31639 49.31165 37998 ft 409 kts 239°
2026-05-06 18:52 43.28751 49.24393 38002 ft 410 kts 239°
2026-05-06 18:52 43.25860 49.17637 38007 ft 410 kts 239°
2026-05-06 18:53 43.22965 49.10890 38011 ft 409 kts 239°
2026-05-06 18:53 43.20093 49.04212 38020 ft 409 kts 239°
2026-05-06 18:54 43.17200 48.97501 38017 ft 409 kts 239°
2026-05-06 18:54 43.14317 48.90830 38019 ft 408 kts 239°
2026-05-06 18:55 43.11447 48.84202 38021 ft 406 kts 239°
2026-05-06 18:55 43.08559 48.77547 38020 ft 406 kts 239°
2026-05-06 18:56 43.05679 48.70928 38018 ft 407 kts 239°
2026-05-06 18:56 43.02790 48.64303 38014 ft 408 kts 239°
2026-05-06 18:57 42.99882 48.57649 38012 ft 408 kts 239°
2026-05-06 18:57 42.96975 48.51012 38021 ft 407 kts 239°
2026-05-06 18:58 42.94072 48.44399 38009 ft 407 kts 239°
2026-05-06 18:58 42.91158 48.37777 38024 ft 408 kts 239°
2026-05-06 18:59 42.88248 48.31178 38039 ft 406 kts 238°
2026-05-06 18:59 42.85326 48.24567 38044 ft 406 kts 238°
2026-05-06 19:00 42.82429 48.18029 38036 ft 406 kts 238°
2026-05-06 19:00 42.79509 48.11449 38027 ft 405 kts 238°
2026-05-06 19:01 42.76583 48.04873 38044 ft 408 kts 238°
2026-05-06 19:01 42.73656 47.98309 38036 ft 406 kts 238°
2026-05-06 19:02 42.70720 47.91740 38037 ft 407 kts 238°
2026-05-06 19:02 42.67794 47.85212 38050 ft 406 kts 238°
2026-05-06 19:03 42.64866 47.78704 38045 ft 406 kts 238°
2026-05-06 19:03 42.61916 47.72164 38041 ft 407 kts 238°
2026-05-06 19:04 42.58950 47.65604 38058 ft 407 kts 238°
2026-05-06 19:04 42.56020 47.59136 38063 ft 406 kts 238°
2026-05-06 19:05 42.53056 47.52607 38087 ft 407 kts 238°
2026-05-06 19:05 42.50090 47.46088 38111 ft 406 kts 238°
2026-05-06 19:06 42.47131 47.39597 38115 ft 405 kts 238°
2026-05-06 19:06 42.44339 47.33488 38142 ft 406 kts 237°
2026-05-06 19:06 42.42842 47.30219 37871 ft 408 kts 237°
2026-05-06 19:07 42.41384 47.27033 37873 ft 393 kts 237°
2026-05-06 19:07 42.39958 47.23924 37650 ft 386 kts 237°
2026-05-06 19:07 42.38557 47.20874 37131 ft 386 kts 237°
2026-05-06 19:07 42.37146 47.17804 36617 ft 385 kts 237°
2026-05-06 19:08 42.35728 47.14722 36100 ft 384 kts 238°
2026-05-06 19:08 42.34338 47.11703 35598 ft 383 kts 237°
2026-05-06 19:08 42.32915 47.08616 35003 ft 384 kts 238°
2026-05-06 19:08 42.31518 47.05590 34458 ft 384 kts 238°
2026-05-06 19:09 42.30115 47.02551 33863 ft 384 kts 237°
2026-05-06 19:09 42.28707 46.99507 33265 ft 386 kts 238°
2026-05-06 19:09 42.27277 46.96419 32626 ft 388 kts 238°
2026-05-06 19:09 42.25857 46.93356 31991 ft 389 kts 238°
2026-05-06 19:10 42.24414 46.90244 31284 ft 391 kts 238°
2026-05-06 19:10 42.22995 46.87190 30794 ft 386 kts 238°
2026-05-06 19:10 42.21577 46.84137 30233 ft 384 kts 238°
2026-05-06 19:10 42.20152 46.81073 29583 ft 382 kts 238°
2026-05-06 19:11 42.18755 46.78073 29007 ft 378 kts 238°
2026-05-06 19:11 42.17375 46.75114 28441 ft 373 kts 238°
2026-05-06 19:11 42.16013 46.72195 27878 ft 365 kts 238°
2026-05-06 19:11 42.14665 46.69308 27370 ft 364 kts 238°
2026-05-06 19:12 42.13297 46.66381 26842 ft 371 kts 238°
2026-05-06 19:12 42.11938 46.63477 26342 ft 372 kts 238°
2026-05-06 19:12 42.10562 46.60540 25822 ft 369 kts 238°
2026-05-06 19:12 42.09199 46.57634 25323 ft 365 kts 238°
2026-05-06 19:13 42.07855 46.54771 24816 ft 364 kts 238°
2026-05-06 19:13 42.06509 46.51906 24325 ft 363 kts 238°
2026-05-06 19:13 42.05158 46.49032 23840 ft 362 kts 238°
2026-05-06 19:13 42.03814 46.46177 23349 ft 360 kts 238°
2026-05-06 19:14 42.02481 46.43348 22875 ft 357 kts 238°
2026-05-06 19:14 42.01172 46.40573 22420 ft 355 kts 238°
2026-05-06 19:14 41.99849 46.37770 21969 ft 353 kts 238°
2026-05-06 19:14 41.98532 46.34983 21522 ft 352 kts 237°
2026-05-06 19:15 41.97221 46.32211 21080 ft 350 kts 238°
2026-05-06 19:15 41.95919 46.29461 20635 ft 348 kts 238°
2026-05-06 19:15 41.94560 46.26774 20174 ft 348 kts 234°
2026-05-06 19:15 41.93148 46.24147 19713 ft 345 kts 234°
2026-05-06 19:16 41.91773 46.21568 19268 ft 342 kts 234°
2026-05-06 19:16 41.90388 46.18974 18819 ft 339 kts 234°
2026-05-06 19:16 41.89025 46.16422 18382 ft 337 kts 234°
2026-05-06 19:16 41.87654 46.13858 17947 ft 337 kts 234°
2026-05-06 19:17 41.86301 46.11329 17522 ft 333 kts 235°
2026-05-06 19:17 41.84944 46.08792 17100 ft 331 kts 235°
2026-05-06 19:17 41.83619 46.06318 16678 ft 329 kts 235°
2026-05-06 19:17 41.82287 46.03833 16241 ft 327 kts 235°
2026-05-06 19:18 41.80960 46.01362 15816 ft 325 kts 235°
2026-05-06 19:18 41.79646 45.98912 15399 ft 323 kts 235°
2026-05-06 19:18 41.78332 45.96467 14996 ft 322 kts 235°
2026-05-06 19:18 41.77038 45.94061 14585 ft 320 kts 235°
2026-05-06 19:19 41.75738 45.91645 14179 ft 318 kts 235°
2026-05-06 19:19 41.74462 45.89275 13789 ft 316 kts 235°
2026-05-06 19:19 41.73186 45.86909 13397 ft 307 kts 235°
2026-05-06 19:19 41.71938 45.84596 13044 ft 307 kts 235°
2026-05-06 19:20 41.70688 45.82279 12677 ft 315 kts 235°
2026-05-06 19:20 41.69402 45.79899 12236 ft 314 kts 235°
2026-05-06 19:20 41.68144 45.77571 11801 ft 310 kts 235°
2026-05-06 19:20 41.66888 45.75251 11399 ft 307 kts 235°
2026-05-06 19:21 41.65626 45.72918 11020 ft 308 kts 234°
2026-05-06 19:21 41.64373 45.70607 10614 ft 309 kts 234°
2026-05-06 19:21 41.63121 45.68299 10240 ft 303 kts 234°
2026-05-06 19:21 41.61915 45.66077 10197 ft 287 kts 234°
2026-05-06 19:22 41.60757 45.63947 10050 ft 276 kts 234°
2026-05-06 19:22 41.59661 45.61929 9838 ft 265 kts 235°
2026-05-06 19:22 41.58566 45.59915 9595 ft 271 kts 235°
2026-05-06 19:22 41.57452 45.57867 9309 ft 275 kts 234°
2026-05-06 19:23 41.56336 45.55818 9044 ft 270 kts 234°
2026-05-06 19:23 41.55230 45.53779 8656 ft 272 kts 237°
2026-05-06 19:23 41.54508 45.51505 8337 ft 267 kts 261°
2026-05-06 19:23 41.54298 45.49030 8043 ft 268 kts 265°
2026-05-06 19:24 41.54107 45.46589 7724 ft 268 kts 265°
2026-05-06 19:24 41.53926 45.44117 7391 ft 266 kts 265°
2026-05-06 19:24 41.53753 45.41663 7077 ft 264 kts 266°
2026-05-06 19:24 41.53589 45.39279 6979 ft 257 kts 266°
2026-05-06 19:25 41.53427 45.36899 6603 ft 260 kts 266°
2026-05-06 19:25 41.53263 45.34477 6277 ft 259 kts 265°
2026-05-06 19:25 41.53101 45.32059 5918 ft 259 kts 265°
2026-05-06 19:25 41.52940 45.29677 5599 ft 257 kts 265°
2026-05-06 19:26 41.52780 45.27314 5284 ft 256 kts 265°
2026-05-06 19:26 41.52621 45.24967 4983 ft 254 kts 265°
2026-05-06 19:26 41.52461 45.22613 4660 ft 253 kts 265°
2026-05-06 19:26 41.52305 45.20325 4495 ft 242 kts 265°
2026-05-06 19:27 41.52155 45.18129 4492 ft 228 kts 266°
2026-05-06 19:27 41.52017 45.16095 4495 ft 215 kts 267°
2026-05-06 19:27 41.52163 45.14159 4510 ft 207 kts 290°
2026-05-06 19:27 41.52964 45.12619 4556 ft 203 kts 318°
2026-05-06 19:28 41.53966 45.11383 4508 ft 190 kts 317°
2026-05-06 19:28 41.54906 45.10183 4417 ft 187 kts 317°
2026-05-06 19:28 41.55859 45.08979 4176 ft 187 kts 317°
2026-05-06 19:28 41.56802 45.07792 3896 ft 186 kts 317°
2026-05-06 19:29 41.57733 45.06623 3681 ft 176 kts 317°
2026-05-06 19:29 41.58575 45.05568 3517 ft 159 kts 317°
2026-05-06 19:29 41.59346 45.04601 3286 ft 144 kts 317°
2026-05-06 19:29 41.60034 45.03738 3078 ft 130 kts 317°
2026-05-06 19:30 41.60686 45.02923 2902 ft 128 kts 317°
2026-05-06 19:30 41.61331 45.02087 2719 ft 131 kts 316°
2026-05-06 19:30 41.61995 45.01259 2535 ft 126 kts 317°
2026-05-06 19:30 41.62640 45.00468 2352 ft 126 kts 317°
2026-05-06 19:31 41.63284 44.99668 2186 ft 125 kts 317°
2026-05-06 19:31 41.63914 44.98895 2049 ft 124 kts 316°
2026-05-06 19:31 41.65170 44.97313 1707 ft 121 kts 316°
2026-05-06 19:32 41.65778 44.96550 1555 ft 123 kts 316°
2026-05-06 19:32 41.66388 44.95771 1535 ft 113 kts 317°
2026-05-06 19:32 41.66835 44.95199 1544 ft 66 kts 318°
2026-05-06 19:32 41.67090 44.94886 1552 ft 40 kts 316°
2026-05-06 19:33 41.67279 44.94646 1564 ft 34 kts 316°
2026-05-06 19:33 41.67416 44.94474 1573 ft 13 kts 317°
2026-05-06 19:33 41.67487 44.94413 1575 ft 8 kts 354°
2026-05-06 19:33 41.67529 44.94439 1577 ft 5 kts 54°
2026-05-06 19:34 41.67545 44.94480 1579 ft 4 kts 65°
2026-05-06 19:34 41.67559 44.94523 1580 ft 6 kts 71°
2026-05-06 19:34 41.67572 44.94576 1581 ft 0 kts 72°
2026-05-06 19:34 41.67576 44.94595 1582 ft 3 kts 72°
2026-05-06 19:35 41.67586 44.94638 1583 ft 5 kts 73°
2026-05-06 19:35 41.67599 44.94696 1584 ft 8 kts 73°
2026-05-06 19:35 41.67619 44.94783 1587 ft 10 kts 73°
2026-05-06 19:35 41.67639 44.94873 1590 ft 12 kts 73°
2026-05-06 19:36 41.67663 44.94984 1595 ft 7 kts 74°
2026-05-06 19:36 41.67656 44.95046 1596 ft 7 kts 119°
2026-05-06 19:36 41.67616 44.95109 1594 ft 10 kts 133°
2026-05-06 19:36 41.67565 44.95180 1591 ft 9 kts 134°
2026-05-06 19:37 41.67510 44.95257 1588 ft 13 kts 134°
2026-05-06 19:37 41.67440 44.95366 1584 ft 17 kts 129°
2026-05-06 19:37 41.67363 44.95483 1579 ft 17 kts 133°
2026-05-06 19:37 41.67303 44.95567 1577 ft 19 kts 133°
2026-05-06 19:38 41.67194 44.95718 1576 ft 17 kts 133°
2026-05-06 19:38 41.67114 44.95832 1573 ft 17 kts 133°
2026-05-06 19:38 41.67055 44.95941 1574 ft 14 kts 123°
2026-05-06 19:38 41.66988 44.96040 1573 ft 14 kts 133°
2026-05-06 19:39 41.66918 44.96139 1571 ft 12 kts 133°
2026-05-06 19:39 41.66886 44.96184 1570 ft 4 kts 123°
2026-05-06 19:39 41.66886 44.96218 1572 ft 2 kts 60°
2026-05-06 19:39 41.66896 44.96231 1573 ft 1 kts 45°
2026-05-06 19:40 41.66905 44.96244 1574 ft 2 kts 44°
2026-05-06 19:40 41.66923 44.96267 1576 ft 3 kts 43°
2026-05-06 19:40 41.66936 44.96283 1577 ft 2 kts 42°
2026-05-06 19:40 41.66940 44.96288 1577 ft 0 kts 43°